CDT,Max TemperatureF,Mean TemperatureF,Min TemperatureF,Max Dew PointF,MeanDew PointF,Min DewpointF,Max Humidity, Mean Humidity, Min Humidity, Max Sea Level PressureIn, Mean Sea Level PressureIn, Min Sea Level PressureIn, Max VisibilityMiles, Mean VisibilityMiles, Min VisibilityMiles, Max Wind SpeedMPH, Mean Wind SpeedMPH, Max Gust SpeedMPH,PrecipitationIn, CloudCover, Events, WindDirDegrees
2012-10-1,84,76,68,77,72,63,100,86,67,29.69,29.60,29.54,10,8,2,20,12,30,0.41,7,Rain-Thunderstorm,197
2012-10-2,80,72,63,64,62,60,96,80,52,29.98,29.82,29.69,10,10,10,10,5,,0.00,5,,286
2012-10-3,79,68,57,65,62,57,97,77,58,30.11,30.07,29.99,10,10,7,9,2,,0.00,5,,62
2012-10-4,86,73,62,70,64,61,100,85,49,30.24,30.17,30.11,10,6,0,8,3,,0.00,5,Fog,38
2012-10-5,88,76,64,74,69,63,100,90,59,30.14,30.06,29.96,10,6,0,8,3,,0.00,4,Fog,54
2012-10-6,90,78,68,73,68,61,100,87,39,30.03,29.97,29.88,10,4,0,7,2,,0.00,3,Fog-Rain,347
2012-10-7,81,70,59,66,62,54,100,84,60,30.09,30.01,29.95,10,8,5,14,7,18,0.00,5,,352
2012-10-8,79,66,54,58,54,51,93,71,48,30.08,30.03,29.98,10,10,7,10,6,21,0.00,1,,356
2012-10-9,81,66,53,61,55,51,96,79,47,30.12,30.05,29.99,10,9,6,9,4,,0.00,1,,356
2012-10-10,84,70,55,64,60,55,97,77,46,30.13,30.09,30.04,10,9,5,7,3,,0.00,0,,1
2012-10-11,86,72,59,65,62,58,97,77,41,30.21,30.16,30.11,10,8,5,7,2,,0.00,0,,55
2012-10-12,88,72,57,67,62,57,100,84,46,30.23,30.18,30.14,10,6,0,6,1,,0.00,1,Fog-Rain,326
2012-10-13,88,76,64,70,66,62,97,77,49,30.21,30.15,30.11,10,9,6,12,4,,0.00,1,,89
2012-10-14,86,75,66,72,69,64,100,88,59,30.13,30.04,29.97,10,7,1,9,4,,0.00,1,Rain,129
2012-10-15,87,74,60,72,67,56,100,82,46,30.02,29.94,29.85,10,7,1,15,3,21,0.00,3,,309
2012-10-16,80,66,52,56,51,44,93,62,30,29.96,29.90,29.84,10,10,7,8,5,,0.00,4,,22
2012-10-17,82,69,57,64,58,50,93,69,45,29.88,29.83,29.77,10,10,10,12,4,21,0.00,2,Rain,145
2012-10-18,79,70,57,70,66,56,100,90,64,29.85,29.80,29.73,10,8,2,10,4,17,0.37,5,Rain,100
2012-10-19,80,66,52,52,46,38,83,53,22,29.91,29.85,29.79,10,10,10,10,5,22,0.00,0,,293
2012-10-20,81,63,46,53,47,41,93,63,28,29.97,29.92,29.87,10,10,10,13,4,,0.00,0,,317
2012-10-21,82,64,46,58,52,46,97,71,31,30.10,30.04,29.98,10,9,5,8,2,,0.00,0,Rain,53
2012-10-22,82,68,53,60,55,50,100,72,37,30.13,30.08,30.04,10,10,9,9,3,,0.00,0,,81
2012-10-23,84,68,55,62,58,54,97,75,41,30.10,30.04,30.00,10,10,7,7,3,,0.00,2,,77
2012-10-24,88,70,57,62,59,55,96,73,42,30.08,30.02,29.97,10,10,8,9,3,,0.00,1,,49
2012-10-25,86,72,61,66,61,57,93,74,43,29.99,29.94,29.90,10,10,9,9,3,,0.00,1,,65
2012-10-26,84,73,62,68,63,60,96,75,46,29.95,29.88,29.83,10,9,6,9,4,,0.00,1,,14
2012-10-27,66,60,53,63,52,48,94,83,72,29.92,29.87,29.83,10,9,7,16,10,25,0.00,7,,339
2012-10-28,66,58,48,48,44,37,88,67,43,30.00,29.90,29.85,10,10,10,18,10,28,0.00,3,,329
2012-10-29,62,52,42,37,34,30,79,54,30,30.05,29.98,29.91,10,10,10,20,12,29,0.00,0,,330
2012-10-30,66,52,37,38,34,27,86,57,27,30.00,29.96,29.89,10,10,10,21,11,30,0.00,1,,299
2012-10-31,75,60,44,59,46,38,90,62,33,30.01,29.96,29.91,10,10,9,12,8,17,0.00,1,,269